| time (UTC) | temp F | wind direction | speed knots | gust knots | rain 1hr in | rain 24hr in | rain mn in | humidity % | barometer mb |
| 20260506192610 | 48 | 282 | 2.6 | 5.2 | 0.00 | 0.31 | 0.31 | 97 | 1009.5 |
| 20260506192106 | 48 | 297 | 2.6 | 5.2 | 0.00 | 0.31 | 0.31 | 97 | 1009.5 |
| 20260506191603 | 48 | 286 | 3.5 | 7.8 | 0.00 | 0.31 | 0.31 | 97 | 1009.7 |
| 20260506191059 | 48 | 296 | 4.3 | 5.2 | 0.00 | 0.31 | 0.31 | 97 | 1009.6 |
| 20260506190556 | 48 | 329 | 6.1 | 7.0 | 0.00 | 0.31 | 0.31 | 97 | 1009.6 |
| 20260506190053 | 48 | 315 | 4.3 | 7.0 | 0.00 | 0.31 | 0.31 | 97 | 1009.5 |
| 20260506185550 | 48 | 293 | 6.1 | 7.0 | 0.00 | 0.31 | 0.31 | 97 | 1009.5 |
| 20260506185047 | 48 | 308 | 3.5 | 6.1 | 0.00 | 0.31 | 0.31 | 97 | 1009.4 |
| 20260506184544 | 48 | 297 | 7.0 | 7.8 | 0.00 | 0.31 | 0.31 | 97 | 1009.5 |
| 20260506184036 | 48 | 265 | 5.2 | 7.0 | 0.00 | 0.31 | 0.31 | 97 | 1009.6 |
| 20260506183532 | 48 | 311 | 5.2 | 7.0 | 0.00 | 0.31 | 0.31 | 97 | 1009.4 |
| 20260506183029 | 49 | 302 | 5.2 | 7.0 | 0.00 | 0.31 | 0.31 | 97 | 1009.6 |
| 20260506182526 | 49 | 317 | 2.6 | 4.3 | 0.00 | 0.31 | 0.31 | 97 | 1009.4 |
| 20260506182023 | 49 | 299 | 3.5 | 5.2 | 0.00 | 0.31 | 0.31 | 97 | 1009.4 |
| 20260506181521 | 49 | 316 | 4.3 | 5.2 | 0.00 | 0.31 | 0.31 | 97 | 1009.3 |
| 20260506181018 | 48 | 308 | 4.3 | 6.1 | 0.00 | 0.31 | 0.31 | 97 | 1009.2 |
| 20260506180514 | 48 | 305 | 2.6 | 5.2 | 0.00 | 0.31 | 0.31 | 97 | 1009.2 |
| 20260506180011 | 48 | 330 | 2.6 | 6.1 | 0.07 | 0.31 | 0.31 | 97 | 1009.2 |
| 20260506175508 | 48 | 317 | 1.7 | 2.6 | 0.07 | 0.31 | 0.31 | 97 | 1009.3 |
| 20260506175004 | 48 | 9 | 2.6 | 7.0 | 0.00 | 0.30 | 0.30 | 97 | 1009.4 |
| 20260506174502 | 48 | 3 | 4.3 | 5.2 | 0.00 | 0.30 | 0.30 | 97 | 1009.4 |
| 20260506173957 | 48 | 335 | 2.6 | 7.0 | 0.00 | 0.30 | 0.30 | 97 | 1009.5 |
| 20260506173455 | 48 | 290 | 4.3 | 7.0 | 0.00 | 0.30 | 0.30 | 97 | 1009.5 |
| 20260506172947 | 48 | 319 | 4.3 | 7.0 | 0.05 | 0.30 | 0.30 | 97 | 1009.2 |
| 20260506172444 | 48 | 327 | 4.3 | 7.0 | 0.05 | 0.30 | 0.30 | 97 | 1009.3 |
| 20260506171940 | 48 | 313 | 8.7 | 8.7 | 0.00 | 0.29 | 0.29 | 97 | 1009.4 |
| 20260506171438 | 48 | 298 | 7.8 | 9.6 | 0.07 | 0.29 | 0.29 | 97 | 1009.3 |
| 20260506170936 | 48 | 310 | 7.8 | 7.8 | 0.07 | 0.29 | 0.29 | 97 | 1009.6 |
| 20260506170431 | 49 | 345 | 5.2 | 7.8 | 0.05 | 0.28 | 0.28 | 97 | 1009.3 |
| 20260506165924 | 50 | 296 | 4.3 | 5.2 | 0.05 | 0.28 | 0.28 | 97 | 1009.6 |
| 20260506165422 | 51 | 33 | 2.6 | 5.2 | 0.07 | 0.27 | 0.27 | 97 | 1009.3 |
| 20260506164913 | 53 | 323 | 4.3 | 6.1 | 0.07 | 0.27 | 0.27 | 97 | 1009.4 |
| 20260506164409 | 53 | 338 | 2.6 | 5.2 | 0.05 | 0.26 | 0.26 | 97 | 1009.5 |
| 20260506163907 | 54 | 12 | 0.9 | 2.6 | 0.12 | 0.26 | 0.26 | 98 | 1009.2 |
| 20260506163401 | 54 | 338 | 2.6 | 4.3 | 0.19 | 0.25 | 0.25 | 97 | 1009.2 |
| 20260506162856 | 54 | 304 | 2.6 | 4.3 | 0.14 | 0.23 | 0.23 | 97 | 1009.5 |
| 20260506162355 | 54 | 320 | 2.6 | 4.3 | 0.07 | 0.22 | 0.22 | 97 | 1009.3 |
| 20260506161852 | 54 | 300 | 3.5 | 4.3 | 0.05 | 0.21 | 0.21 | 97 | 1009.5 |
| 20260506161350 | 54 | 323 | 0.0 | 0.9 | 0.05 | 0.21 | 0.21 | 97 | 1009.4 |
| 20260506160847 | 54 | 311 | 0.0 | 0.9 | 0.07 | 0.20 | 0.20 | 97 | 1009.2 |
| 20260506160344 | 54 | 324 | 0.0 | 0.0 | 0.07 | 0.20 | 0.20 | 97 | 1009.5 |
| 20260506155843 | 54 | 22 | 0.0 | 0.0 | 0.05 | 0.19 | 0.19 | 97 | 1009.3 |
| 20260506155339 | 53 | 351 | 0.0 | 1.7 | 0.07 | 0.18 | 0.18 | 97 | 1009.1 |
| 20260506153456 | 53 | 45 | 0.9 | 0.9 | 0.00 | 0.17 | 0.17 | 97 | 1009.6 |
| 20260506152953 | 53 | 40 | 0.9 | 0.9 | 0.00 | 0.17 | 0.17 | 97 | 1009.4 |
| 20260506152450 | 53 | 44 | 0.0 | 1.7 | 0.00 | 0.17 | 0.17 | 97 | 1009.1 |
| 20260506151948 | 53 | 8 | 1.7 | 2.6 | 0.00 | 0.17 | 0.17 | 97 | 1009.5 |
| 20260506151445 | 53 | 52 | 0.0 | 1.7 | 0.00 | 0.17 | 0.17 | 97 | 1009.5 |
| 20260506150943 | 53 | 69 | 0.0 | 4.3 | 0.05 | 0.17 | 0.17 | 97 | 1009.4 |
| 20260506150438 | 53 | 34 | 0.0 | 2.6 | 0.00 | 0.16 | 0.16 | 97 | 1009.7 |
| 20260506145936 | 53 | 112 | 1.7 | 2.6 | 0.00 | 0.16 | 0.16 | 97 | 1009.5 |
| 20260506145432 | 52 | 129 | 1.7 | 4.3 | 0.07 | 0.16 | 0.16 | 97 | 1009.5 |
| 20260506144930 | 52 | 27 | 0.9 | 1.7 | 0.12 | 0.16 | 0.16 | 97 | 1009.6 |
| 20260506144426 | 52 | 26 | 0.9 | 1.7 | 0.05 | 0.15 | 0.15 | 97 | 1009.7 |
| 20260506143925 | 52 | 346 | 0.0 | 0.9 | 0.07 | 0.14 | 0.14 | 97 | 1009.7 |
| 20260506143421 | 52 | 42 | 0.9 | 2.6 | 0.07 | 0.14 | 0.14 | 97 | 1009.6 |
| 20260506142920 | 52 | 71 | 2.6 | 4.3 | 0.00 | 0.13 | 0.13 | 97 | 1010.0 |
| 20260506142417 | 52 | 49 | 1.7 | 1.7 | 0.05 | 0.13 | 0.13 | 97 | 1009.8 |
| 20260506141915 | 52 | 76 | 1.7 | 1.7 | 0.12 | 0.13 | 0.13 | 97 | 1010.1 |
| 20260506141413 | 51 | 115 | 2.6 | 4.3 | 0.14 | 0.12 | 0.12 | 97 | 1010.2 |
| 20260506140911 | 51 | 97 | 2.6 | 2.6 | 0.07 | 0.11 | 0.11 | 97 | 1010.4 |
| 20260506140408 | 51 | 122 | 1.7 | 2.6 | 0.05 | 0.10 | 0.10 | 97 | 1010.4 |
| 20260506135905 | 51 | 112 | 0.9 | 2.6 | 0.07 | 0.09 | 0.09 | 97 | 1010.5 |
| 20260506135401 | 51 | 80 | 0.9 | 1.7 | 0.07 | 0.09 | 0.09 | 97 | 1010.5 |
| 20260506134858 | 51 | 102 | 0.0 | 0.0 | 0.00 | 0.08 | 0.08 | 97 | 1010.7 |
| 20260506134354 | 51 | 100 | 1.7 | 1.7 | 0.00 | 0.08 | 0.08 | 97 | 1010.5 |
| 20260506133851 | 51 | 100 | 0.9 | 1.7 | 0.00 | 0.08 | 0.08 | 97 | 1010.4 |
| 20260506133348 | 51 | 81 | 0.0 | 0.0 | 0.05 | 0.08 | 0.08 | 97 | 1010.4 |
| 20260506132844 | 51 | 139 | 1.7 | 2.6 | 0.05 | 0.08 | 0.08 | 96 | 1010.1 |
| 20260506132341 | 51 | 72 | 2.6 | 2.6 | 0.00 | 0.07 | 0.07 | 96 | 1010.0 |
| 20260506131840 | 51 | 100 | 0.9 | 2.6 | 0.00 | 0.07 | 0.07 | 96 | 1010.3 |
| 20260506131335 | 51 | 76 | 1.7 | 2.6 | 0.00 | 0.07 | 0.07 | 96 | 1010.1 |
| 20260506130833 | 51 | 112 | 1.7 | 2.6 | 0.00 | 0.07 | 0.07 | 96 | 1010.2 |
| 20260506130329 | 51 | 80 | 2.6 | 2.6 | 0.00 | 0.07 | 0.07 | 96 | 1010.2 |
| 20260506125827 | 51 | 89 | 1.7 | 4.3 | 0.00 | 0.07 | 0.07 | 96 | 1010.4 |
| 20260506125325 | 51 | 149 | 2.6 | 2.6 | 0.00 | 0.07 | 0.07 | 96 | 1010.3 |
| 20260506124824 | 51 | 109 | 1.7 | 1.7 | 0.00 | 0.07 | 0.07 | 96 | 1010.5 |
| 20260506124320 | 51 | 125 | 0.9 | 1.7 | 0.00 | 0.07 | 0.07 | 96 | 1010.3 |
| 20260506123818 | 51 | 99 | 1.7 | 1.7 | 0.00 | 0.07 | 0.07 | 96 | 1010.6 |
| 20260506123316 | 50 | 41 | 0.0 | 0.0 | 0.00 | 0.07 | 0.07 | 96 | 1010.6 |
| 20260506122813 | 50 | 11 | 0.0 | 0.0 | 0.00 | 0.07 | 0.07 | 96 | 1010.5 |
| 20260506122310 | 50 | 33 | 0.0 | 0.0 | 0.00 | 0.07 | 0.07 | 96 | 1010.5 |
| 20260506121808 | 50 | 56 | 0.9 | 0.9 | 0.00 | 0.07 | 0.07 | 96 | 1010.5 |
| 20260506121305 | 50 | 12 | 0.0 | 0.0 | 0.00 | 0.07 | 0.07 | 96 | 1010.5 |
| 20260506120802 | 50 | 12 | 0.0 | 0.0 | 0.00 | 0.07 | 0.07 | 96 | 1010.7 |
| 20260506120300 | 50 | 17 | 0.0 | 0.0 | 0.07 | 0.07 | 0.07 | 96 | 1010.6 |
| 20260506115757 | 50 | 8 | 0.0 | 0.0 | 0.00 | 0.06 | 0.06 | 96 | 1010.7 |
| 20260506115255 | 50 | 8 | 0.0 | 0.0 | 0.05 | 0.06 | 0.06 | 96 | 1011.0 |
| 20260506114753 | 50 | 357 | 0.0 | 0.0 | 0.05 | 0.06 | 0.06 | 96 | 1011.0 |
| 20260506114250 | 50 | 323 | 0.0 | 0.0 | 0.00 | 0.05 | 0.05 | 96 | 1011.3 |
| 20260506113748 | 50 | 7 | 0.0 | 0.0 | 0.07 | 0.05 | 0.05 | 96 | 1011.2 |
| 20260506113246 | 50 | 305 | 0.0 | 2.6 | 0.07 | 0.05 | 0.05 | 96 | 1011.1 |
| 20260506112742 | 50 | 2 | 0.0 | 0.0 | 0.00 | 0.04 | 0.04 | 96 | 1011.2 |
| 20260506112239 | 50 | 347 | 0.0 | 0.0 | 0.00 | 0.04 | 0.04 | 96 | 1011.2 |
| 20260506111736 | 50 | 310 | 0.0 | 0.0 | 0.00 | 0.04 | 0.04 | 96 | 1011.2 |
| 20260506111235 | 50 | 314 | 0.0 | 0.0 | 0.05 | 0.04 | 0.04 | 96 | 1011.2 |
| 20260506110732 | 50 | 334 | 0.0 | 0.0 | 0.00 | 0.03 | 0.03 | 96 | 1010.9 |
| 20260506110230 | 50 | 5 | 0.0 | 0.0 | 0.00 | 0.03 | 0.03 | 96 | 1010.9 |
| 20260506105726 | 50 | 330 | 0.0 | 0.0 | 0.00 | 0.03 | 0.03 | 96 | 1010.9 |
| 20260506105223 | 50 | 321 | 0.0 | 0.0 | 0.00 | 0.03 | 0.03 | 96 | 1011.0 |
| 20260506104721 | 50 | 347 | 0.0 | 0.0 | 0.00 | 0.03 | 0.03 | 96 | 1010.9 |
| 20260506104218 | 50 | 2 | 0.0 | 0.0 | 0.07 | 0.03 | 0.03 | 96 | 1010.8 |
| 20260506103715 | 50 | 294 | 0.9 | 1.7 | 0.07 | 0.03 | 0.03 | 96 | 1011.0 |
| 20260506103211 | 50 | 264 | 0.0 | 2.6 | 0.00 | 0.02 | 0.02 | 96 | 1010.8 |
| 20260506102710 | 50 | 8 | 0.0 | 0.0 | 0.00 | 0.02 | 0.02 | 96 | 1010.9 |
| 20260506102208 | 50 | 321 | 0.0 | 0.0 | 0.00 | 0.02 | 0.02 | 96 | 1010.9 |
| 20260506101704 | 50 | 327 | 0.0 | 0.0 | 0.00 | 0.02 | 0.02 | 95 | 1010.7 |
| 20260506101200 | 49 | 298 | 0.0 | 0.0 | 0.05 | 0.02 | 0.02 | 95 | 1011.1 |
| 20260506100659 | 49 | 342 | 0.0 | 0.0 | 0.05 | 0.02 | 0.02 | 95 | 1011.1 |
| 20260506100156 | 50 | 0 | 0.0 | 0.0 | 0.00 | 0.01 | 0.01 | 95 | 1010.8 |
| 20260506095655 | 50 | 338 | 0.0 | 0.0 | 0.00 | 0.01 | 0.01 | 95 | 1011.3 |
| 20260506095151 | 50 | 166 | 1.7 | 1.7 | 0.00 | 0.01 | 0.01 | 95 | 1010.8 |
| 20260506094649 | 50 | 139 | 0.9 | 1.7 | 0.07 | 0.01 | 0.01 | 95 | 1011.0 |
| 20260506094146 | 50 | 316 | 1.7 | 1.7 | 0.07 | 0.01 | 0.01 | 95 | 1011.0 |
| 20260506093645 | 50 | 317 | 2.6 | 2.6 | 0.00 | 0.00 | 0.00 | 95 | 1011.3 |
| 20260506093142 | 50 | 29 | 0.9 | 2.6 | 0.00 | 0.00 | 0.00 | 95 | 1010.9 |
| 20260506092639 | 50 | 340 | 0.0 | 1.7 | 0.00 | 0.00 | 0.00 | 94 | 1010.8 |
| 20260506092136 | 50 | 251 | 1.7 | 1.7 | 0.00 | 0.00 | 0.00 | 94 | 1010.9 |
| 20260506091634 | 50 | 310 | 0.0 | 0.0 | 0.00 | 0.00 | 0.00 | 94 | 1010.8 |
| 20260506091131 | 50 | 88 | 0.0 | 0.0 | 0.00 | 0.00 | 0.00 | 94 | 1010.8 |
| 20260506090630 | 50 | 220 | 0.0 | 0.0 | 0.00 | 0.00 | 0.00 | 94 | 1010.9 |
| 20260506090125 | 49 | 1 | 0.0 | 0.0 | 0.00 | 0.00 | 0.00 | 94 | 1010.7 |
| 20260506085622 | 50 | 28 | 0.0 | 0.0 | 0.00 | 0.00 | 0.00 | 94 | 1010.8 |
| 20260506085119 | 50 | 25 | 0.0 | 0.0 | 0.00 | 0.00 | 0.00 | 94 | 1010.8 |
| 20260506084615 | 50 | 14 | 0.0 | 0.0 | 0.00 | 0.00 | 0.00 | 94 | 1010.9 |
| 20260506084112 | 50 | 10 | 0.0 | 0.0 | 0.00 | 0.00 | 0.00 | 94 | 1010.9 |
| 20260506083609 | 50 | 332 | 0.0 | 0.0 | 0.00 | 0.00 | 0.00 | 94 | 1011.1 |
| 20260506083107 | 50 | 354 | 0.0 | 0.0 | 0.00 | 0.00 | 0.00 | 94 | 1011.4 |
| 20260506082603 | 50 | 122 | 0.9 | 1.7 | 0.00 | 0.00 | 0.00 | 94 | 1010.9 |
| 20260506082059 | 50 | 196 | 0.0 | 0.0 | 0.00 | 0.00 | 0.00 | 94 | 1010.9 |
| 20260506081557 | 50 | 335 | 0.0 | 0.0 | 0.00 | 0.00 | 0.00 | 93 | 1011.1 |
| 20260506081054 | 50 | 308 | 0.0 | 0.0 | 0.00 | 0.00 | 0.00 | 93 | 1011.6 |
| 20260506080552 | 50 | 314 | 0.0 | 0.0 | 0.00 | 0.00 | 0.00 | 93 | 1011.3 |
| 20260506073032 | 50 | 336 | 0.0 | 1.7 | 0.00 | 0.00 | 0.00 | 93 | 1011.8 |
| 20260506072529 | 50 | 316 | 1.7 | 2.6 | 0.00 | 0.00 | 0.00 | 93 | 1011.8 |
| 20260506072027 | 50 | 308 | 1.7 | 2.6 | 0.00 | 0.00 | 0.00 | 93 | 1011.9 |
| 20260506071525 | 50 | 326 | 1.7 | 4.3 | 0.00 | 0.00 | 0.00 | 93 | 1011.9 |
| 20260506071022 | 50 | 296 | 0.9 | 4.3 | 0.00 | 0.00 | 0.00 | 93 | 1012.0 |
| 20260506070519 | 51 | 324 | 0.9 | 2.6 | 0.00 | 0.00 | 0.00 | 93 | 1011.9 |
| 20260506062456 | 51 | 323 | 1.7 | 2.6 | 0.00 | 0.00 | 0.00 | 92 | 1012.2 |
| 20260506061953 | 51 | 301 | 1.7 | 1.7 | 0.00 | 0.00 | 0.00 | 92 | 1012.1 |
| 20260506061449 | 51 | 297 | 1.7 | 2.6 | 0.00 | 0.00 | 0.00 | 91 | 1011.8 |
| 20260506060947 | 51 | 298 | 1.7 | 1.7 | 0.00 | 0.00 | 0.00 | 91 | 1012.1 |
| 20260506060445 | 51 | 330 | 0.9 | 1.7 | 0.00 | 0.00 | 0.00 | 91 | 1012.0 |
| 20260506050914 | 53 | 297 | 0.9 | 2.6 | 0.00 | 0.00 | 0.00 | 89 | 1012.5 |
| 20260506050412 | 54 | 311 | 4.3 | 5.2 | 0.00 | 0.00 | 0.00 | 88 | 1012.4 |
| 20260506044902 | 54 | 330 | 1.7 | 4.3 | 0.00 | 0.00 | 0.00 | 87 | 1012.5 |
| 20260506044400 | 54 | 329 | 3.5 | 6.1 | 0.00 | 0.00 | 0.00 | 87 | 1012.7 |
| 20260506043856 | 54 | 306 | 2.6 | 4.3 | 0.00 | 0.00 | 0.00 | 86 | 1012.7 |
| 20260506043354 | 55 | 325 | 0.9 | 1.7 | 0.00 | 0.00 | 0.00 | 86 | 1012.6 |
| 20260506042852 | 55 | 323 | 1.7 | 4.3 | 0.00 | 0.00 | 0.00 | 86 | 1012.9 |
| 20260506042351 | 55 | 315 | 1.7 | 4.3 | 0.00 | 0.00 | 0.00 | 86 | 1012.7 |
| 20260506041849 | 54 | 2 | 0.9 | 0.9 | 0.00 | 0.00 | 0.00 | 87 | 1012.6 |
| 20260506041346 | 55 | 346 | 0.0 | 0.0 | 0.00 | 0.00 | 0.00 | 87 | 1012.7 |
| 20260506040843 | 54 | 305 | 0.9 | 1.7 | 0.00 | 0.00 | 0.00 | 87 | 1012.7 |
| 20260506040340 | 55 | 339 | 0.0 | 1.7 | 0.00 | 0.00 | 0.00 | 88 | 1012.9 |
| 20260506035836 | 55 | 321 | 1.7 | 1.7 | 0.00 | 0.10 | 0.10 | 87 | 1012.9 |
| 20260506035334 | 55 | 317 | 0.0 | 0.0 | 0.00 | 0.10 | 0.10 | 86 | 1013.2 |
| 20260506034831 | 55 | 297 | 0.9 | 0.9 | 0.00 | 0.10 | 0.10 | 86 | 1013.0 |
| 20260506034328 | 55 | 323 | 0.0 | 0.0 | 0.00 | 0.10 | 0.10 | 86 | 1013.1 |
| 20260506033825 | 55 | 314 | 0.0 | 0.0 | 0.00 | 0.10 | 0.10 | 86 | 1012.9 |
| 20260506033322 | 55 | 324 | 0.0 | 0.0 | 0.00 | 0.10 | 0.10 | 85 | 1012.9 |
| 20260506032819 | 55 | 306 | 0.0 | 0.9 | 0.00 | 0.10 | 0.10 | 85 | 1013.1 |
| 20260506032316 | 55 | 131 | 0.9 | 0.9 | 0.00 | 0.10 | 0.10 | 84 | 1012.9 |
| 20260506031812 | 55 | 293 | 0.0 | 0.9 | 0.00 | 0.10 | 0.10 | 84 | 1012.9 |
| 20260506031310 | 55 | 20 | 0.0 | 0.9 | 0.00 | 0.10 | 0.10 | 84 | 1012.7 |
| 20260506030807 | 55 | 16 | 0.0 | 2.6 | 0.00 | 0.10 | 0.10 | 84 | 1012.5 |
| 20260506030305 | 55 | 296 | 0.9 | 4.3 | 0.00 | 0.10 | 0.10 | 83 | 1012.6 |
| 20260506025802 | 55 | 299 | 3.5 | 6.1 | 0.00 | 0.10 | 0.10 | 83 | 1012.7 |
| 20260506025258 | 55 | 305 | 4.3 | 5.2 | 0.00 | 0.10 | 0.10 | 83 | 1012.6 |
| 20260506024755 | 55 | 301 | 7.0 | 7.8 | 0.00 | 0.10 | 0.10 | 83 | 1012.5 |
| 20260506024252 | 55 | 328 | 4.3 | 6.1 | 0.00 | 0.10 | 0.10 | 83 | 1012.7 |
| 20260506023748 | 56 | 307 | 4.3 | 7.8 | 0.00 | 0.10 | 0.10 | 82 | 1012.6 |
| 20260506023245 | 55 | 252 | 5.2 | 8.7 | 0.00 | 0.10 | 0.10 | 82 | 1012.5 |
| 20260506022742 | 55 | 317 | 6.1 | 9.6 | 0.00 | 0.10 | 0.10 | 83 | 1012.5 |
| 20260506022240 | 55 | 260 | 6.1 | 8.7 | 0.00 | 0.10 | 0.10 | 83 | 1012.5 |
| 20260506021738 | 55 | 310 | 6.1 | 7.8 | 0.00 | 0.10 | 0.10 | 82 | 1012.3 |
| 20260506021234 | 56 | 325 | 5.2 | 7.0 | 0.00 | 0.10 | 0.10 | 82 | 1012.6 |
| 20260506020731 | 56 | 271 | 4.3 | 7.8 | 0.00 | 0.10 | 0.10 | 82 | 1012.6 |
| 20260506020229 | 56 | 284 | 5.2 | 7.8 | 0.00 | 0.10 | 0.10 | 82 | 1012.6 |
| 20260506015726 | 56 | 261 | 2.6 | 2.6 | 0.00 | 0.10 | 0.10 | 81 | 1012.7 |
| 20260506015224 | 56 | 284 | 5.2 | 8.7 | 0.00 | 0.10 | 0.10 | 81 | 1012.7 |
| 20260506014721 | 56 | 269 | 2.6 | 7.8 | 0.00 | 0.10 | 0.10 | 84 | 1012.3 |
| 20260506014217 | 57 | 273 | 4.3 | 9.6 | 0.00 | 0.10 | 0.10 | 84 | 1012.6 |
| 20260506013714 | 57 | 307 | 7.0 | 12.2 | 0.00 | 0.10 | 0.10 | 84 | 1012.1 |
| 20260506013211 | 58 | 311 | 7.8 | 8.7 | 0.00 | 0.10 | 0.10 | 84 | 1012.2 |
| 20260506012707 | 58 | 289 | 11.3 | 15.6 | 0.00 | 0.10 | 0.10 | 84 | 1012.1 |
| 20260506012205 | 58 | 313 | 6.1 | 11.3 | 0.00 | 0.10 | 0.10 | 85 | 1011.8 |
| 20260506011702 | 59 | 310 | 8.7 | 14.8 | 0.00 | 0.10 | 0.10 | 86 | 1011.9 |
| 20260506011158 | 59 | 278 | 7.8 | 11.3 | 0.00 | 0.10 | 0.10 | 87 | 1011.7 |
| 20260506010657 | 60 | 287 | 6.1 | 8.7 | 0.00 | 0.10 | 0.10 | 88 | 1011.6 |
| 20260506010153 | 60 | 306 | 8.7 | 13.9 | 0.00 | 0.10 | 0.10 | 89 | 1011.1 |
| 20260506005650 | 61 | 313 | 7.8 | 9.6 | 0.00 | 0.10 | 0.10 | 90 | 1011.1 |
| 20260506005147 | 62 | 318 | 7.8 | 9.6 | 0.00 | 0.10 | 0.10 | 90 | 1011.2 |
| 20260506004643 | 62 | 310 | 4.3 | 4.3 | 0.00 | 0.10 | 0.10 | 88 | 1010.8 |
| 20260506004141 | 62 | 294 | 0.0 | 0.0 | 0.00 | 0.10 | 0.10 | 86 | 1010.4 |
| 20260506003637 | 61 | 296 | 0.0 | 0.0 | 0.00 | 0.10 | 0.10 | 88 | 1010.2 |
| 20260506003133 | 62 | 296 | 0.0 | 0.0 | 0.00 | 0.10 | 0.10 | 88 | 1010.3 |
| 20260506002629 | 62 | 303 | 0.0 | 0.0 | 0.00 | 0.10 | 0.10 | 87 | 1010.2 |
| 20260506002125 | 62 | 295 | 0.0 | 0.0 | 0.00 | 0.10 | 0.10 | 87 | 1010.2 |
| 20260506001621 | 62 | 297 | 0.0 | 0.0 | 0.00 | 0.10 | 0.10 | 87 | 1010.1 |
| 20260506001119 | 62 | 220 | 0.9 | 0.9 | 0.00 | 0.10 | 0.10 | 87 | 1010.1 |
| 20260506000616 | 63 | 238 | 0.9 | 1.7 | 0.00 | 0.10 | 0.10 | 86 | 1010.4 |
| 20260506000113 | 63 | 223 | 1.7 | 1.7 | 0.00 | 0.10 | 0.10 | 84 | 1010.2 |
| 20260505235611 | 63 | 340 | 0.9 | 0.9 | 0.00 | 0.10 | 0.10 | 84 | 1009.9 |
| 20260505235108 | 63 | 285 | 0.9 | 0.9 | 0.00 | 0.10 | 0.10 | 86 | 1009.8 |
| 20260505234605 | 62 | 291 | 0.9 | 1.7 | 0.00 | 0.10 | 0.10 | 86 | 1009.8 |
| 20260505234101 | 63 | 349 | 0.0 | 0.0 | 0.00 | 0.10 | 0.10 | 86 | 1009.7 |
| 20260505233559 | 63 | 336 | 0.0 | 0.0 | 0.00 | 0.10 | 0.10 | 86 | 1009.6 |
| 20260505233056 | 64 | 12 | 1.7 | 1.7 | 0.00 | 0.10 | 0.10 | 85 | 1009.8 |
| 20260505232554 | 64 | 336 | 0.9 | 1.7 | 0.00 | 0.10 | 0.10 | 82 | 1009.6 |
| 20260505232051 | 65 | 338 | 0.0 | 0.0 | 0.00 | 0.10 | 0.10 | 80 | 1009.3 |
| 20260505231548 | 65 | 315 | 0.0 | 0.9 | 0.00 | 0.10 | 0.10 | 79 | 1009.0 |
| 20260505231047 | 65 | 318 | 0.0 | 0.9 | 0.00 | 0.10 | 0.10 | 79 | 1009.1 |
| 20260505230544 | 65 | 278 | 0.0 | 0.9 | 0.00 | 0.10 | 0.10 | 79 | 1009.2 |
| 20260505230040 | 65 | 312 | 0.0 | 1.7 | 0.00 | 0.10 | 0.10 | 79 | 1008.8 |
| 20260505225537 | 65 | 277 | 1.7 | 1.7 | 0.00 | 0.10 | 0.10 | 78 | 1009.3 |
| 20260505225033 | 65 | 298 | 1.7 | 4.3 | 0.00 | 0.10 | 0.10 | 78 | 1009.0 |
| 20260505224530 | 65 | 226 | 4.3 | 5.2 | 0.00 | 0.10 | 0.10 | 77 | 1009.0 |
| 20260505224028 | 65 | 230 | 1.7 | 7.0 | 0.00 | 0.10 | 0.10 | 77 | 1009.1 |
| 20260505223525 | 65 | 203 | 4.3 | 6.1 | 0.00 | 0.10 | 0.10 | 78 | 1008.7 |
| 20260505223021 | 65 | 174 | 4.3 | 6.1 | 0.00 | 0.10 | 0.10 | 79 | 1009.0 |
| 20260505222517 | 65 | 212 | 5.2 | 7.8 | 0.00 | 0.10 | 0.10 | 79 | 1009.2 |
| 20260505222013 | 64 | 213 | 5.2 | 8.7 | 0.00 | 0.10 | 0.10 | 80 | 1009.1 |
| 20260505221511 | 64 | 163 | 3.5 | 7.0 | 0.00 | 0.10 | 0.10 | 81 | 1009.1 |
| 20260505221007 | 63 | 204 | 3.5 | 7.8 | 0.00 | 0.10 | 0.10 | 83 | 1009.1 |
| 20260505220504 | 63 | 172 | 2.6 | 4.3 | 0.00 | 0.10 | 0.10 | 84 | 1009.2 |
| 20260505220002 | 62 | 216 | 2.6 | 2.6 | 0.00 | 0.10 | 0.10 | 85 | 1009.1 |
| 20260505215500 | 63 | 24 | 1.7 | 4.3 | 0.00 | 0.10 | 0.10 | 86 | 1009.3 |
| 20260505214957 | 63 | 183 | 0.0 | 2.6 | 0.00 | 0.10 | 0.10 | 85 | 1009.4 |
| 20260505214455 | 63 | 242 | 0.9 | 4.3 | 0.00 | 0.10 | 0.10 | 86 | 1009.4 |
| 20260505213952 | 63 | 296 | 0.9 | 1.7 | 0.00 | 0.10 | 0.10 | 86 | 1009.3 |
| 20260505213450 | 63 | 295 | 0.9 | 4.3 | 0.05 | 0.10 | 0.10 | 85 | 1009.2 |
| 20260505212946 | 62 | 235 | 3.5 | 5.2 | 0.00 | 0.09 | 0.09 | 87 | 1009.5 |
| 20260505212443 | 62 | 248 | 2.6 | 4.3 | 0.00 | 0.09 | 0.09 | 89 | 1009.7 |
| 20260505211939 | 62 | 294 | 1.7 | 2.6 | 0.00 | 0.09 | 0.09 | 89 | 1009.6 |
| 20260505211437 | 62 | 328 | 1.7 | 5.2 | 0.00 | 0.09 | 0.09 | 89 | 1009.6 |
| 20260505210933 | 62 | 299 | 4.3 | 6.1 | 0.00 | 0.09 | 0.09 | 88 | 1009.4 |
| 20260505210430 | 62 | 278 | 6.1 | 8.7 | 0.00 | 0.09 | 0.09 | 87 | 1009.3 |
| 20260505205927 | 62 | 304 | 5.2 | 12.2 | 0.07 | 0.09 | 0.09 | 89 | 1009.3 |
| 20260505205426 | 62 | 313 | 7.8 | 13.0 | 0.07 | 0.09 | 0.09 | 88 | 1009.1 |
| 20260505204922 | 61 | 271 | 7.8 | 14.8 | 0.07 | 0.08 | 0.08 | 88 | 1009.1 |
| 20260505204420 | 61 | 306 | 6.1 | 7.0 | 0.07 | 0.08 | 0.08 | 90 | 1009.2 |
| 20260505203917 | 61 | 280 | 1.7 | 6.1 | 0.00 | 0.07 | 0.07 | 90 | 1009.0 |
| 20260505203413 | 62 | 312 | 5.2 | 7.8 | 0.00 | 0.07 | 0.07 | 88 | 1008.3 |
| 20260505202909 | 62 | 332 | 6.1 | 13.0 | 0.05 | 0.07 | 0.07 | 86 | 1008.5 |
| 20260505202406 | 62 | 316 | 8.7 | 14.8 | 0.05 | 0.07 | 0.07 | 85 | 1008.7 |
| 20260505201902 | 63 | 297 | 7.0 | 13.9 | 0.00 | 0.06 | 0.06 | 84 | 1009.3 |
| 20260505201359 | 65 | 325 | 7.0 | 13.9 | 0.00 | 0.06 | 0.06 | 78 | 1008.7 |
| 20260505200858 | 66 | 334 | 7.0 | 21.7 | 0.00 | 0.06 | 0.06 | 77 | 1008.7 |
| 20260505200354 | 70 | 307 | 11.3 | 27.8 | 0.00 | 0.06 | 0.06 | 72 | 1008.2 |
| 20260505195850 | 71 | 318 | 6.1 | 8.7 | 0.00 | 0.06 | 0.06 | 67 | 1007.9 |
| 20260505195348 | 72 | 327 | 5.2 | 7.8 | 0.00 | 0.06 | 0.06 | 67 | 1007.4 |
| 20260505194844 | 74 | 333 | 4.3 | 7.8 | 0.00 | 0.06 | 0.06 | 67 | 1007.2 |
| 20260505194342 | 74 | 306 | 4.3 | 7.0 | 0.00 | 0.06 | 0.06 | 64 | 1007.2 |
| 20260505193837 | 73 | 307 | 2.6 | 4.3 | 0.00 | 0.06 | 0.06 | 67 | 1007.1 |
| 20260505193335 | 72 | 235 | 3.5 | 5.2 | 0.00 | 0.06 | 0.06 | 69 | 1007.1 |